Prestwick, United Kingdom

3:58 PM GMT on January 20, 2018 (GMT +0000)
Prestwick

Weather History for EGPK - October, 2013

Change the Weather History Date:

Wednesday, October 9, 2013

  Actual Average Record
Temperature  
Mean Temperature 47 °F -  
Max Temperature 53 °F 52 °F 60 °F (1999)
Min Temperature 41 °F 42 °F 33 °F (2012)
Degree Days  
Heating Degree Days 18    
Moisture  
Dew Point 41 °F    
Average Humidity 74    
Maximum Humidity 88    
Minimum Humidity 62    
Precipitation  
Precipitation 0.00 in - - ()
Sea Level Pressure  
Sea Level Pressure 30.09 in    
Wind  
Wind Speed 15 mph ()    
Max Wind Speed 29 mph    
Max Gust Speed 41 mph    
Visibility 6.1 miles    
Events Rain    
Averages and records for this station are not official NWS values.
T = Trace of Precipitation, MM = Missing Value Source: Averaged Metar Reports

Daily Weather History Graph

Daily Weather History Graph

Search for Another Location

Airport or City:

Trip Planner

Search our weather history database for the weather conditions in past years. The results will help you decide how hot, cold, wet, or windy it might be!

Date:

Astronomy

Oct. 09, 2013 Rise Set
Actual Time 7:36 AM BST 6:33 PM BST
Civil Twilight 7:00 AM BST 7:09 PM BST
Nautical Twilight 6:17 AM BST 7:52 PM BST
Astronomical Twilight 5:34 AM BST 8:35 PM BST
Moon 1:00 PM BST (10/9) 9:10 PM BST (10/9)
Length of Visible Light 12h 09m
Length of Day
10h 56m
Waxing Crescent, 23% of the Moon is Illuminated
Oct 9
Waxing Crescent
Oct 12
First Quarter
Oct 19
Full
Oct 27
Last Quarter
Nov 3
New

Hourly Weather History & Observations

Time (BST) Temp. Windchill Dew Point Humidity Pressure Visibility Wind Dir Wind Speed Gust Speed Precip Events Conditions
12:20 AM 53.6 °F - 46.4 °F 77% 30.18 in 6.2 mi West 18.4 mph - N/A   Mostly Cloudy
12:50 AM 53.6 °F - 46.4 °F 77% 30.18 in 6.2 mi West 9.2 mph - N/A   Mostly Cloudy
1:50 AM 51.8 °F - 48.2 °F 88% 30.18 in 6.2 mi West 10.4 mph - N/A   Mostly Cloudy
2:50 AM 51.8 °F - 46.4 °F 82% 30.15 in 6.2 mi West 15.0 mph - N/A   Scattered Clouds
3:50 AM 51.8 °F - 46.4 °F 82% 30.15 in 6.2 mi West 15.0 mph - N/A   Scattered Clouds
4:50 AM 51.8 °F - 46.4 °F 82% 30.12 in 6.2 mi West 10.4 mph - N/A   Mostly Cloudy
5:50 AM 51.8 °F - 46.4 °F 82% 30.09 in 6.2 mi West 16.1 mph - N/A   Mostly Cloudy
6:50 AM 51.8 °F - 44.6 °F 76% 30.09 in 6.2 mi West 12.7 mph - N/A   Partly Cloudy
7:20 AM 51.8 °F - 44.6 °F 76% 30.06 in 6.2 mi West 13.8 mph - N/A   Scattered Clouds
7:50 AM 53.6 °F - 44.6 °F 72% 30.04 in 6.2 mi West 21.9 mph - N/A   Scattered Clouds
8:20 AM 53.6 °F - 46.4 °F 77% 30.04 in 6.2 mi WSW 24.2 mph - N/A Rain Light Rain
8:50 AM 50.0 °F - 46.4 °F 87% 30.04 in 3.7 mi WNW 24.2 mph 38.0 mph N/A Rain Light Rain
9:20 AM 50.0 °F - 44.6 °F 82% 30.04 in 6.2 mi WNW 24.2 mph - N/A Rain Light Rain
9:50 AM 48.2 °F - 44.6 °F 87% 30.04 in 6.2 mi NW 28.8 mph 41.4 mph N/A Rain Light Rain
10:20 AM 48.2 °F - 42.8 °F 82% 30.04 in 6.2 mi NW 21.9 mph - N/A Rain Light Rain
10:50 AM 50.0 °F - 42.8 °F 76% 30.04 in 6.2 mi WNW 20.7 mph - N/A   Scattered Clouds
11:20 AM 48.2 °F - 41.0 °F 76% 30.06 in 6.2 mi NW 18.4 mph - N/A   Scattered Clouds
11:50 AM 50.0 °F - 39.2 °F 66% 30.06 in 6.2 mi WNW 18.4 mph - N/A   Scattered Clouds
12:20 PM 46.4 °F 38.7 °F 39.2 °F 76% 30.06 in 6.2 mi NW 20.7 mph - N/A Rain Light Rain Showers
12:50 PM 50.0 °F - 41.0 °F 71% 30.06 in 6.2 mi NW 13.8 mph - N/A   Partly Cloudy
1:20 PM 51.8 °F - 39.2 °F 62% 30.04 in 6.2 mi WNW 23.0 mph - N/A   Partly Cloudy
1:50 PM 48.2 °F - 42.8 °F 82% 30.04 in 6.2 mi NW 20.7 mph - N/A   Partly Cloudy
2:20 PM 48.2 °F - 41.0 °F 76% 30.06 in 6.2 mi NW 20.7 mph - N/A   Partly Cloudy
2:50 PM 50.0 °F - 41.0 °F 71% 30.04 in 6.2 mi WNW 21.9 mph - N/A   Partly Cloudy
3:20 PM 51.8 °F - 39.2 °F 62% 30.04 in 6.2 mi WNW 25.3 mph - N/A   Partly Cloudy
3:50 PM 51.8 °F - 39.2 °F 62% 30.04 in 6.2 mi NW 23.0 mph - N/A   Partly Cloudy
4:20 PM 51.8 °F - 39.2 °F 62% 30.04 in 6.2 mi NW 27.6 mph - N/A   Scattered Clouds
4:50 PM 50.0 °F - 39.2 °F 66% 30.04 in 6.2 mi NW 25.3 mph 38.0 mph N/A   Partly Cloudy
5:20 PM 50.0 °F - 39.2 °F 66% 30.04 in 6.2 mi NW 25.3 mph - N/A   Partly Cloudy
5:50 PM 48.2 °F - 39.2 °F 71% 30.06 in 6.2 mi NW 17.3 mph - N/A   Partly Cloudy
6:20 PM 48.2 °F - 39.2 °F 71% 30.06 in 6.2 mi NW 15.0 mph - N/A   Partly Cloudy
6:50 PM 48.2 °F - 37.4 °F 66% 30.09 in 6.2 mi NW 12.7 mph 24.2 mph N/A   Partly Cloudy
7:20 PM 46.4 °F 39.2 °F 37.4 °F 71% 30.09 in 6.2 mi NW 18.4 mph - N/A   Partly Cloudy
7:50 PM 46.4 °F 39.5 °F 35.6 °F 66% 30.09 in 6.2 mi NW 17.3 mph - N/A   Partly Cloudy
8:20 PM 46.4 °F 40.7 °F 37.4 °F 71% 30.12 in 6.2 mi NNW 12.7 mph - N/A   Partly Cloudy
8:50 PM 46.4 °F 41.5 °F 37.4 °F 71% 30.12 in 6.2 mi NNW 10.4 mph - N/A   Partly Cloudy
9:20 PM 46.4 °F 42.9 °F 37.4 °F 71% 30.15 in 6.2 mi NNW 6.9 mph - N/A   Partly Cloudy
9:50 PM 44.6 °F 41.4 °F 37.4 °F 76% 30.15 in 6.2 mi NW 5.8 mph - N/A   Partly Cloudy
10:20 PM 42.8 °F 41.1 °F 35.6 °F 76% 30.15 in 6.2 mi NNW 3.5 mph - N/A   Partly Cloudy
10:50 PM 42.8 °F 39.3 °F 35.6 °F 76% 30.18 in 6.2 mi NNW 5.8 mph - N/A   Partly Cloudy
11:20 PM 41.0 °F 38.0 °F 33.8 °F 76% 30.18 in 6.2 mi NNW 4.6 mph - N/A   Partly Cloudy
11:50 PM 41.0 °F 39.0 °F 33.8 °F 76% 30.18 in 6.2 mi NNW 3.5 mph - N/A   Partly Cloudy